Location: Pitton
(51.0667°N, 1.7000°W)
Time: 00:56:16
(UTC+00:00)

Cosmos 1437 Rocket - Pass Details

Date: 17 September 2019
Orbit: 506 x 563 km, 81.2° (Epoch: 20 October)

Event Time Altitude Azimuth Distance (km) Brightness Sun altitude
Rises 21:01:53 0° 341° (NNW) 2,653 7.2 -24.6°
Reaches altitude 10° 21:04:07 10° 334° (NNW) 1,752 6.2 -24.9°
Maximum altitude 21:07:43 40° 265° (W) 771 3.8 -25.3°
Enters shadow 21:07:47 40° 262° (W) 771 3.8 -25.3°
